Hourly Data Report for June 11, 2021

CARIBOU POINT (AUT)
NOVA SCOTIA
Current Station Operator: ECCC - MSC

45°46'00.000" N
62°41'00.000" W
2.40 m
8200774
71415
WBK

Download Data

Hourly Data (June 2021)
Hourly Data Report for June 11, 2021
TIME
LST
Temp Definition
°C
Dew Point Definition
°C
Rel Hum Definition
%
Precip. Amount Definition
mm

Wind Dir Definition
10's deg

Wind Spd Definition
km/h
Visibility Definition
km
Stn Press Definition
kPa
Hmdx Definition


Wind Chill Definition


Weather Definition


00:00 9.6 4.5 71 0.0 31 16   101.92     LegendNANA
01:00 7.6 5.0 83 0.0 28 14   101.92     LegendNANA
02:00 5.7 3.7 87 0.0 26 11   101.93     LegendNANA
03:00 8.3 6.1 86 0.0 29 24   101.89     LegendNANA
04:00 5.6 3.8 88 0.0 26 10   101.88     LegendNANA
05:00 5.8 3.6 86 0.0 26 13   101.92     LegendNANA
06:00 7.4 3.8 78 0.0 27 11   101.91     LegendNANA
07:00 9.8 4.0 67 0.0 28 15   101.92     LegendNANA
08:00 11.9 3.4 56 0.0 29 17   101.94     LegendNANA
09:00 12.4 2.1 49 0.0 31 13   101.91     LegendNANA
10:00 12.9 2.5 49 0.0 33 10   101.85     LegendNANA
11:00 13.6 4.1 53 0.0 5 5   101.78     LegendNANA
12:00 14.0 6.3 60 0.0 11 13   101.66     LegendNANA
13:00 14.6 6.7 59 0.0 9 16   101.57     LegendNANA
14:00 15.2 7.3 59 0.0 8 10   101.53     LegendNANA
15:00 15.8 7.7 58 0.0 11 8   101.48     LegendNANA
16:00 17.3 3.6 40 0.0 25 11   101.44     LegendNANA
17:00 17.9 -0.3 29 0.0 26 14   101.41     LegendNANA
18:00 16.8 0.7 34 0.0 25 11   101.37     LegendNANA
19:00 15.2 2.6 43 0.0 24 11   101.36     LegendNANA
20:00 14.4 3.9 49 0.0 23 13   101.37     LegendNANA
21:00 13.3 4.5 55 0.0 22 11   101.41     LegendNANA
22:00 12.5 4.2 57 0.0 26 11   101.48     LegendNANA
23:00 11.7 4.9 63 0.0 21 9   101.43     LegendNANA

Notes on Data Quality.

Legend

  • E = Estimated
  • M = Missing
  • NA = Not Available*
  • [empty] = Indicates an unobserved value
Date modified: